Powrót do katalogu

STARLINK-3219

AktywnyŁącznośćVLEO
NORAD 49724·PAYLOAD·🇺🇸 United States

Wystrzelony Dec 2, 2021 z Cape Canaveral Space Force Station

Loading…

Następne Przeloty (najbliższe 24 godziny)

TLE

ŚwieżeSource: CelesTrak SupGP

Epoka: Sep 15, 2026, 01:50 UTC

1 49724C 21115A   26258.07687500  .00013907  00000+0  44730-3 0  2580
2 49724  53.1602   5.0194 0001229  79.9256 251.1803 15.31690041    17

Śledź STARLINK-3219 w czasie rzeczywistym z AllMySat

Download on the App Store